Terminal Aerodrome Forecast
Issued by NWS

Home | Current Version | Previous Version | Text Only | Print | Product List | Glossary On
Versions: 1 2 3 4 5 6 7 8 9 10 11 12
000
FTUS45 KMSO 190520
TAFSMN
TAF
KSMN 190520Z 1906/2006 VRB03KT P6SM SCT200
     FM192000 21011KT P6SM FEW200
     FM200100 19007KT P6SM SCT200
      AMD LTD TO CLD VIS AND WIND=

USA.gov is the U.S. government's official web portal to all federal, state and local government web resources and services.